DMSP 5D-2 F13 DEB, 40434

Orbit data source: Space-Track

DMSP 5D-2 F13 DEB, 40434 is space debris in SSO originally from a launch on Fri, 24 Mar 1995 UTC launched from the Air Force Western Test Range (AFWTR). Debris objects in space refer to the collection of defunct objects orbiting the Earth. Examples of debris include non-operational satellites, rocket bodies, and fragments generated from explosions, collisions, or faulty payload assembly.

Loading next visibility...
Identifier
40434, 1995-015AL
Orbit
SSO
Country
Flag of USUS
Related business
Manufacturer
Unknown
Mission
Spacecraft
Bus & Motor
Unknown
Mass
Unknown
Launch date (UTC)
1995-03-24 (31 years ago)
Launch vehicle
Unknown
Launch site
Air Force Western Test Range (AFWTR)
Object type
Payload
Rocket body
Debris
Shape & HBR
Unknown shape, 0.1 m
Radar Cross Section
Small (<0.1 m²)

Expand to show TLE details & history
Last TLE update: 21 hours ago

TLE from 21 hours ago
0 DMSP 5D-2 F13 DEB
1 40434U 95015AL  25347.87366780  .00003780  00000-0  17632-2 0  9990
2 40434  99.1028 328.1829 0173021  19.8849 340.8958 14.13446267553178
Epoch: 2025-12-13T20:58Z
TLE epoch observation values (Epoch: 2025-12-13T20:58:04.897Z)
Latitude
-0.0001°
Longitude
-69.13217°
Altitude
732.575 km
Speed
7.55 km/s
True Right ascension
21h 52m 43s
True Declination
0° 00' 00"
Sunlit
Object was in daylight at epoch
Visualization orbit readout
Latitude
Unknown
Longitude
Unknown
Altitude
Unknown
Speed
Unknown
Apparent Right ascension
Unknown
Apparent Declination
Unknown
Sunlit
N/A
Visualization observer readout
Local Sidereal Time
16:21:12
Azimuth
Unknown
Elevation
Unknown
Doppler factor
Unknown
Orbital elements
Apogee altitude
969.76 km
Perigee altitude
719.816 km
Semi-major axis
7,222.925 km
Eccentricity
0.0173
Inclination
99.1028°
RAAN
328.1829°
Arg. of periapsis
19.8849°
True anomaly
340.23338°
Mean anomaly
340.8958°
Eccentric anomaly
340.56596°
Mean motion
3.53568 °/min
Orbital period
101.82 mins
BSTAR
0.0017632
Loading maneuver chart data...
Computing Atmospheric mass density...

Documentation

Showing up to 5 results
|